GFSFLT1_prec_cthk_000.txt.gz
RH
50 55 57 54 52 67 78 72 78 79 75 66 66 69 72 74 77 77 77 71 66 63 62 63 61 55 52 50 46 43 42 40
50 51 54 59 70 77 76 82 81 74 68 71 74 75 77 78 76 77 72 67 64 66 61 56 52 51 51 48 45 45 43 40
56 61 66 74 72 67 67 68 68 69 72 76 76 75 74 75 77 74 70 63 60 54 54 53 51 50 49 49 49 46 45 46
61 61 60 58 61 63 61 62 64 68 71 72 72 73 73 71 66 63 58 55 52 49 48 48 47 48 49 51 54 55 53 50
56 53 48 46 50 51 53 59 63 65 66 66 69 68 63 59 56 54 51 47 44 44 48 49 50 51 51 53 53 51 49 47
48 48 46 46 48 50 52 55 58 61 60 57 53 50 49 48 47 46 49 53 55 51 52 56 60 58 50 43 48 48 50 51
48 49 48 50 50 51 53 53 51 52 52 52 50 48 48 47 48 50 54 56 54 54 64 60 57 52 43 43 41 41 43 44
61 55 52 52 53 58 58 60 60 56 54 51 50 48 48 51 52 55 64 65 72 55 57 55 52 42 32 32 35 36 39 42
60 63 61 60 60 57 55 56 59 59 57 58 58 59 59 57 64 62 73 66 69 52 49 44 42 41 34 32 29 31 34 38
65 68 67 64 59 56 59 63 63 62 60 63 64 65 61 66 60 44 43 41 47 54 57 48 43 33 33 36 41 37 33 35
71 70 67 59 61 64 64 64 62 63 63 60 57 52 48 42 36 39 49 54 59 67 73 54 45 50 53 55 51 32 34 36
73 71 67 64 65 63 62 62 60 59 56 47 37 37 39 42 41 41 51 57 77 73 70 70 74 67 55 52 48 34 38 40
73 71 68 67 65 63 64 60 55 50 41 36 37 38 39 44 43 41 50 57 68 77 86 82 74 61 52 49 44 43 40 40
75 68 67 62 57 55 55 54 49 38 32 31 28 26 26 29 44 41 45 65 76 89 73 76 65 59 54 50 42 41 43 48
71 66 63 60 59 56 52 45 36 36 33 30 27 24 21 23 36 47 63 73 72 68 80 75 67 58 50 48 46 44 47 51
71 67 64 61 55 49 40 38 38 36 32 28 25 18 19 24 34 40 48 57 59 72 81 74 62 52 51 52 48 48 51 51
68 66 61 55 47 41 41 40 37 33 29 29 25 20 20 22 27 36 49 52 64 80 87 73 52 49 53 49 49 49 46 53
70 65 56 49 44 44 43 38 34 32 33 28 23 20 21 26 33 45 56 63 76 88 75 63 50 53 49 49 47 46 48 65
64 57 51 46 46 45 42 36 35 32 29 26 24 23 25 30 43 55 79 84 86 75 69 57 51 49 47 48 48 43 56 71

GFSFLT1_prec_cthk_003.txt.gz
RH
45 51 57 63 61 69 80 84 87 90 82 76 72 71 77 79 79 77 77 74 69 67 64 57 47 46 43 39 38 36 37 36
48 54 58 64 68 71 72 74 79 82 75 74 71 77 79 81 80 78 74 70 64 57 50 48 48 45 40 37 39 39 38 38
62 64 71 73 73 66 67 70 70 70 68 70 77 84 83 77 74 73 67 59 54 50 49 47 43 41 42 44 43 40 39 40
67 66 63 63 67 66 64 64 65 67 71 73 68 66 67 69 68 63 56 51 49 47 45 47 48 47 46 45 46 46 47 48
57 58 52 55 54 52 53 55 56 59 61 63 64 65 66 61 56 51 51 51 49 50 50 48 49 47 48 48 44 40 39 39
56 53 54 55 55 54 56 59 60 60 58 58 59 58 55 54 54 54 52 49 48 49 54 56 58 51 46 48 43 30 32 33
57 61 64 59 53 52 57 62 62 62 59 56 55 54 51 50 51 52 50 51 52 62 60 50 53 51 43 45 40 28 30 34
68 59 57 57 57 58 55 55 52 50 53 53 53 53 55 56 54 51 53 49 50 44 38 40 42 44 44 44 40 41 45 46
56 53 60 64 63 61 54 52 53 56 57 57 57 57 61 58 56 53 45 39 34 37 44 53 55 64 60 51 48 50 55 54
54 63 66 64 63 59 56 57 59 59 59 62 58 57 54 48 44 39 35 33 35 43 60 64 69 76 66 70 68 64 59 49
62 68 74 71 68 65 64 66 65 62 58 53 48 45 44 40 36 31 32 38 45 49 43 53 62 67 76 68 69 70 57 52
66 71 76 76 78 75 68 65 62 57 52 44 36 32 31 29 24 21 26 37 45 44 45 48 73 72 70 69 63 62 49 42
70 75 77 82 77 72 68 63 60 54 43 39 35 31 26 20 16 18 29 42 45 51 62 60 69 71 63 64 66 52 46 45
70 73 72 73 73 68 66 62 52 46 42 36 32 26 21 18 16 18 28 34 39 47 49 50 56 62 64 59 47 44 46 47
68 67 70 69 73 70 60 55 51 44 38 34 29 24 21 20 20 22 27 30 37 38 44 46 59 67 63 47 47 45 48 52
68 70 73 78 69 63 58 52 46 40 36 32 29 26 23 23 21 22 29 38 43 42 45 56 71 69 54 49 47 46 52 50
73 79 72 65 63 58 52 49 46 40 35 31 32 28 25 24 22 26 34 45 46 46 58 72 71 61 53 49 47 48 49 47
67 65 64 64 60 54 50 49 44 38 36 36 33 30 27 26 25 31 43 53 56 65 72 65 67 65 55 46 46 46 44 43
64 65 64 60 53 50 49 46 42 40 40 38 34 29 29 30 32 38 47 55 73 72 66 72 74 62 50 43 42 41 40 40

GFSFLT1_prec_cthk_006.txt.gz
RH
53 57 57 61 63 62 63 78 83 91 92 90 80 77 74 80 87 88 80 73 68 70 69 61 50 44 43 42 39 37 36 35
54 56 61 63 66 70 74 79 87 84 75 73 70 72 84 90 79 73 68 66 65 57 50 46 47 47 44 41 42 41 39 37
53 59 65 70 71 71 73 67 65 68 71 70 73 70 64 62 62 62 61 54 48 44 45 47 46 44 44 44 42 41 40 37
64 68 69 66 63 56 54 56 57 58 58 59 59 59 59 59 58 53 49 48 49 50 50 48 47 48 48 50 45 41 38 40
59 56 54 50 47 52 58 57 54 56 58 61 62 62 58 54 52 51 52 53 54 55 54 49 46 49 46 41 36 33 34 34
59 60 60 59 61 55 54 52 55 56 57 56 54 51 52 53 54 54 55 55 51 49 43 41 38 39 36 34 35 38 39 36
57 59 64 67 59 57 58 61 58 52 52 52 54 56 58 57 55 52 52 51 46 40 35 33 34 36 38 43 42 43 38 39
63 70 58 58 60 60 62 61 58 55 55 59 60 60 59 56 54 53 50 44 36 30 29 32 36 35 44 51 49 63 60 55
64 60 52 57 62 66 68 66 64 62 59 58 57 55 54 51 48 42 37 32 28 26 29 33 40 39 47 44 59 65 66 56
50 53 54 56 59 63 66 67 68 64 58 54 53 50 45 39 35 31 25 21 18 24 34 39 59 52 60 63 59 55 57 61
52 53 54 56 60 66 65 72 69 65 61 60 51 47 42 34 28 23 19 15 20 31 42 49 56 61 61 55 53 55 56 57
55 57 60 64 66 70 74 74 68 67 60 51 47 42 35 28 23 20 17 18 28 37 44 44 45 45 39 42 43 48 53 50
59 63 68 70 75 76 68 72 73 60 55 50 45 38 32 27 23 20 18 20 27 37 37 39 40 37 43 48 56 56 49 42
62 68 69 69 68 68 77 70 59 58 55 50 41 35 32 28 24 21 19 23 33 37 40 43 38 44 51 59 59 48 41 37
64 65 66 66 70 77 66 60 59 60 54 46 40 36 34 28 23 22 23 29 33 35 42 41 44 54 60 63 59 47 41 40
64 65 66 74 76 67 61 60 60 54 49 44 41 37 32 26 25 26 25 28 30 42 41 42 49 61 66 64 63 54 43 41
64 68 75 70 61 59 60 59 54 52 48 43 41 35 30 26 27 27 30 35 42 47 47 50 65 69 66 72 69 50 42 39
64 64 63 61 60 61 58 54 54 51 46 42 37 34 29 28 29 32 34 40 48 54 59 67 73 69 74 80 64 47 38 35
62 63 66 65 59 56 56 55 54 50 42 39 36 32 31 30 31 34 39 45 52 59 65 69 73 78 80 68 50 40 36 39

GFSFLT1_prec_cthk_012.txt.gz
RH
53 55 60 62 68 73 73 74 78 79 76 75 73 72 65 59 59 59 56 55 54 52 51 50 50 49 49 49 47 44 41 39
51 53 55 57 60 65 69 77 76 73 70 65 59 56 56 57 55 48 48 50 51 51 52 52 52 51 49 47 44 44 40 38
51 54 57 60 66 73 76 73 67 66 60 57 55 55 54 48 48 50 54 57 58 59 57 56 53 51 50 44 34 31 32 42
53 60 65 65 65 65 64 63 59 54 52 50 54 50 48 53 57 61 60 59 59 59 55 51 47 43 38 34 33 32 32 34
59 56 53 52 52 55 54 54 55 49 48 48 51 57 62 66 69 68 67 62 57 53 50 43 38 33 30 33 31 31 34 32
53 52 53 53 51 52 51 51 48 47 49 54 59 62 66 68 67 65 63 58 52 49 42 36 32 29 30 29 32 34 39 39
50 53 55 55 54 50 48 48 49 52 58 60 60 60 63 65 61 53 49 47 45 38 34 32 31 29 29 31 33 39 48 52
54 57 58 54 53 53 51 55 55 57 59 60 60 59 60 60 49 46 45 39 35 32 29 29 30 31 31 46 52 52 44 49
51 55 57 55 56 54 56 58 58 57 57 61 67 63 57 56 48 45 41 34 32 30 30 29 30 35 41 46 59 47 45 48
51 53 57 57 55 56 57 59 61 58 64 72 79 64 58 48 44 42 35 33 32 32 33 33 41 42 49 58 52 45 45 45
52 54 58 56 57 59 60 61 64 67 72 77 61 56 52 46 39 37 35 34 34 33 37 43 49 43 58 53 45 48 47 53
49 52 55 58 61 61 63 66 68 69 74 67 55 53 49 38 40 41 40 36 34 32 33 39 38 47 46 48 63 52 53 59
48 50 55 59 61 62 66 66 68 72 74 64 51 47 43 42 45 44 41 36 34 33 31 37 38 44 46 50 55 55 60 66
46 49 53 58 62 64 66 67 75 76 53 50 51 47 43 48 49 45 40 37 35 33 35 37 40 45 48 50 54 60 66 72
46 49 54 58 62 63 67 72 67 51 51 53 50 46 49 51 49 44 38 35 33 37 37 38 40 42 48 53 59 66 75 79
46 49 54 57 59 61 68 65 53 52 55 54 50 50 53 51 48 42 36 33 34 38 35 37 39 44 52 60 68 73 75 75
46 51 53 57 59 64 65 57 55 58 56 53 53 55 53 50 46 38 33 34 37 41 46 49 49 54 60 67 73 73 67 54
44 48 55 60 62 62 64 62 60 59 55 57 59 54 51 46 39 35 39 35 39 41 47 55 55 59 55 55 56 50 47 44
45 52 58 62 62 69 66 63 62 60 62 65 54 52 47 39 35 35 37 37 41 43 49 51 53 51 50 49 46 45 43 44

GFSFLT1_prec_cthk_015.txt.gz
RH
53 54 61 67 72 75 74 75 76 81 82 77 73 67 63 59 59 55 48 45 46 49 51 51 53 55 55 54 50 47 41 40
55 60 62 66 68 70 65 73 81 86 80 75 65 57 52 51 49 46 47 50 52 53 57 59 59 59 56 51 48 44 37 34
54 58 61 64 69 71 72 76 82 79 76 63 61 56 53 51 49 51 55 57 59 62 63 63 60 56 51 47 43 41 38 38
56 59 63 66 70 71 68 69 69 66 61 57 52 50 50 52 54 54 58 63 63 61 56 55 52 49 44 40 40 42 36 35
58 61 62 64 63 60 58 56 57 55 51 50 53 58 61 58 60 61 64 63 62 56 53 53 48 41 41 40 40 40 37 40
55 58 54 56 57 57 54 52 49 45 48 51 52 56 60 62 63 63 62 58 56 47 45 39 39 40 42 42 42 41 43 44
52 52 51 53 54 52 49 49 49 48 50 52 56 60 60 65 70 66 62 48 44 43 38 35 35 41 44 42 42 42 43 45
47 46 48 53 54 51 50 51 51 51 54 57 56 59 63 68 80 61 46 45 43 35 35 37 36 40 41 40 39 43 53 56
45 44 47 51 54 53 52 54 53 54 56 56 58 65 71 78 66 44 43 39 34 33 37 39 44 43 42 42 45 56 55 59
44 46 49 51 55 55 55 55 53 55 59 63 65 65 65 62 54 50 40 36 34 37 40 45 45 40 42 53 57 54 50 53
41 45 47 50 53 57 57 54 54 59 66 65 63 64 67 63 48 40 40 38 39 43 39 36 40 39 53 51 49 50 54 62
42 44 44 47 51 54 55 55 60 63 67 67 64 60 60 48 41 43 43 42 48 43 39 36 37 45 44 43 45 49 62 68
43 43 45 47 50 52 55 59 63 66 72 66 57 59 51 45 48 50 48 53 48 44 42 42 46 44 37 47 52 49 59 63
42 42 45 48 50 53 55 61 62 68 69 60 61 58 51 53 53 55 60 54 47 44 45 47 45 42 41 53 57 53 58 66
41 43 46 50 52 55 59 61 65 68 64 63 59 55 55 54 58 65 60 52 46 42 48 46 43 44 43 48 52 56 63 70
39 43 47 51 53 56 60 61 66 68 65 61 58 57 58 63 65 63 56 50 44 45 49 47 47 50 47 44 51 59 64 65
41 43 47 50 52 55 60 66 68 71 63 61 62 63 67 67 61 57 52 47 48 50 49 50 47 62 52 48 45 49 51 53
38 42 48 52 54 56 64 69 72 68 68 68 68 72 70 62 57 51 48 50 54 51 49 46 51 59 49 44 43 46 48 47
42 47 50 55 58 61 69 72 71 76 69 75 80 75 62 57 52 45 49 52 50 49 49 46 52 51 48 45 50 48 47 48